Powrót do katalogu

DELTA 1 DEB

AktywnySSO
NORAD 7166·DEBRIS·🇺🇸 United States

Wystrzelony Nov 6, 1973 z Vandenberg Space Force Base

Loading…

Następne Przeloty (najbliższe 24 godziny)

TLE

ŚwieżeSource: Space-Track

Epoka: Sep 13, 2026, 23:20 UTC

1 07166U 73086EE  26256.97277437  .00000023  00000-0  50651-3 0  9996
2 07166 102.2438 263.8671 0014743  99.4886 319.3000 12.41505634391637

Śledź DELTA 1 DEB w czasie rzeczywistym z AllMySat

Download on the App Store